Grand Junction, CO

9:28 PM MDT on May 24, 2018 (GMT -0600)
Walker

Weather History for KGJT - October, 2013

Change the Weather History Date:

Tuesday, October 29, 2013

  Actual Average Record
Temperature  
Mean Temperature 48 °F 47 °F  
Max Temperature 58 °F 60 °F 79 °F (1964)
Min Temperature 38 °F 35 °F 16 °F (1917)
Degree Days  
Heating Degree Days 17 18  
Month to date heating degree days 440 338  
Since 1 July heating degree days 522 412  
Cooling Degree Days 0 0  
Month to date cooling degree days 0 1  
Year to date cooling degree days 1269 1123  
Moisture  
Dew Point 37 °F    
Average Humidity 59    
Maximum Humidity 93    
Minimum Humidity 25    
Precipitation  
Precipitation 0.39 in 0.03 in 0.39 in (2013)
Month to date precipitation 1.32 1.00  
Year to date precipitation 10.38 8.04  
Snow  
Snow 0.00 in 0.00 in 2.30 in (1972)
Month to date snowfall 0.1 0.3  
Since 1 July snowfall 0.1 0.3  
Since 1 September snowfall 0.1 0.3  
Snow Depth 0.00 in    
Sea Level Pressure  
Sea Level Pressure 29.83 in    
Wind  
Wind Speed 10 mph (SE)    
Max Wind Speed 37 mph    
Max Gust Speed 48 mph    
Visibility 9 miles    
Events Rain    
T = Trace of Precipitation, MM = Missing Value Source: NWS Daily Summary

Daily Weather History Graph

Daily Weather History Graph

Search for Another Location

Airport or City:

Astronomy

Oct. 29, 2013 Rise Set
Actual Time 7:38 AM MDT 6:16 PM MDT
Civil Twilight 7:11 AM MDT 6:43 PM MDT
Nautical Twilight 6:39 AM MDT 7:15 PM MDT
Astronomical Twilight 6:08 AM MDT 7:46 PM MDT
Moon 2:34 AM MDT (10/29) 3:29 PM MDT (10/29)
Length of Visible Light 11h 32m
Length of Day
10h 37m
Waning Crescent, 24% of the Moon is Illuminated
Oct 29
Waning Crescent
Nov 3
New
Nov 9
First Quarter
Nov 17
Full
Nov 25
Last Quarter

Hourly Weather History & Observations

Time (MDT) Temp. Windchill Dew Point Humidity Pressure Visibility Wind Dir Wind Speed Gust Speed Precip Events Conditions
12:53 AM 57.0 °F - 23.0 °F 27% 29.65 in 10.0 mi South 8.1 mph - N/A   Clear
1:53 AM 57.9 °F - 24.1 °F 27% 29.65 in 10.0 mi SSW 19.6 mph 24.2 mph N/A   Scattered Clouds
2:53 AM 55.9 °F - 25.0 °F 30% 29.66 in 10.0 mi SSW 13.8 mph 18.4 mph N/A   Mostly Cloudy
3:53 AM 54.0 °F - 30.9 °F 41% 29.67 in 10.0 mi South 13.8 mph - N/A   Mostly Cloudy
4:53 AM 51.1 °F - 34.0 °F 52% 29.67 in 9.0 mi South 35.7 mph 48.3 mph 0.01 in Rain Light Rain
5:00 AM 50.0 °F - 35.6 °F 58% 29.79 in 10.0 mi South 20.7 mph 43.7 mph 0.00 in Rain Light Rain
5:53 AM 50.0 °F - 36.0 °F 59% 29.64 in 10.0 mi West 3.5 mph - 0.00 in   Overcast
6:53 AM 41.0 °F 32.8 °F 39.0 °F 93% 29.78 in 10.0 mi WSW 16.1 mph - 0.03 in Rain Light Rain
7:53 AM 39.9 °F 31.8 °F 37.0 °F 89% 29.84 in 6.0 mi NW 15.0 mph - 0.01 in Rain Rain
8:00 AM 39.2 °F 30.8 °F 37.4 °F 93% 29.92 in 7.0 mi NW 15.0 mph - 0.01 in Rain Rain
8:13 AM 39.2 °F 29.8 °F 37.4 °F 93% 29.93 in 5.0 mi WNW 18.4 mph 25.3 mph 0.05 in Rain Rain
8:38 AM 37.4 °F 29.3 °F 37.4 °F 100% 29.93 in 8.0 mi NNW 12.7 mph - 0.09 in Rain Light Rain
8:53 AM 39.0 °F 31.4 °F 37.0 °F 93% 29.87 in 10.0 mi North 12.7 mph - 0.09 in Rain Light Rain
9:00 AM 39.2 °F 32.5 °F 37.4 °F 93% 29.95 in 10.0 mi North 10.4 mph - 0.00 in   Mostly Cloudy
9:53 AM 42.1 °F 40.2 °F 37.9 °F 85% 29.88 in 10.0 mi North 3.5 mph - 0.00 in   Mostly Cloudy
10:53 AM 41.0 °F - 39.0 °F 93% 29.89 in 10.0 mi Calm Calm - N/A   Mostly Cloudy
11:53 AM 43.0 °F 38.8 °F 39.9 °F 89% 29.88 in 10.0 mi SSE 6.9 mph - N/A   Overcast
12:53 PM 48.0 °F - 41.0 °F 77% 29.83 in 10.0 mi East 3.5 mph - N/A   Mostly Cloudy
1:53 PM 48.0 °F - - N/A% 29.79 in 10.0 mi East 11.5 mph - N/A   Overcast
2:53 PM 50.0 °F - 34.0 °F 54% 29.78 in 10.0 mi Calm Calm - N/A   Mostly Cloudy
3:53 PM 46.9 °F - 39.0 °F 74% 29.78 in 10.0 mi ESE 13.8 mph - 0.00 in   Mostly Cloudy
4:53 PM 46.9 °F - 39.0 °F 74% 29.79 in 10.0 mi ESE 5.8 mph - 0.00 in Rain Light Rain
5:53 PM 45.0 °F 39.7 °F 39.0 °F 80% 29.80 in 10.0 mi SE 10.4 mph - 0.00 in Rain Light Rain
6:53 PM 43.0 °F 40.3 °F 39.9 °F 89% 29.84 in 9.0 mi SW 4.6 mph - 0.02 in Rain Light Rain
7:05 PM 42.8 °F 40.1 °F 39.2 °F 87% 29.88 in 6.0 mi West 4.6 mph - 0.00 in Rain Light Rain
7:32 PM 41.0 °F 34.7 °F 39.2 °F 93% 29.89 in 6.0 mi NW 10.4 mph - 0.05 in Rain Light Rain
7:53 PM 39.9 °F 32.5 °F 37.9 °F 93% 29.88 in 10.0 mi North 12.7 mph - 0.06 in Rain Light Rain
8:41 PM 39.2 °F 33.6 °F 37.4 °F 93% 29.90 in 6.0 mi North 8.1 mph - 0.06 in Rain Rain
8:53 PM 39.9 °F 34.5 °F 37.0 °F 89% 29.87 in 7.0 mi NNE 8.1 mph - 0.09 in Rain Light Rain
9:18 PM 39.2 °F 33.0 °F 37.4 °F 93% 29.89 in 10.0 mi East 9.2 mph - 0.02 in Rain Light Rain
9:53 PM 39.9 °F 34.5 °F 37.9 °F 93% 29.86 in 10.0 mi SE 8.1 mph - 0.03 in Rain Light Rain
10:53 PM 41.0 °F 36.4 °F 39.0 °F 93% 29.89 in 10.0 mi SE 6.9 mph - 0.00 in   Overcast
11:09 PM 39.2 °F 33.6 °F 39.2 °F 100% 29.93 in 10.0 mi SSE 8.1 mph - N/A   Overcast
11:23 PM 39.2 °F 33.6 °F 39.2 °F 100% 29.93 in 10.0 mi SE 8.1 mph - N/A   Overcast
11:35 PM 39.2 °F 33.6 °F 37.4 °F 93% 29.94 in 10.0 mi ESE 8.1 mph - N/A   Overcast
11:53 PM 39.0 °F 32.8 °F 37.0 °F 93% 29.91 in 10.0 mi East 9.2 mph - N/A   Mostly Cloudy